OBJECT F, 67688

Orbit data source: Space-Track

You're viewing an Uncataloged Satellite

Recently launched and/or uncataloged satellites may have evolving metadata. Metadata may include but not limited to: Owner, Maufacturer, Bus, Motor, and Mission.

OBJECT F, 67688 is a satellite in LEO that was delivered to and deployed from the ISS. Unknown objects in Earth's orbit typically refer to objects detected orbiting the Earth but have not yet been identified or cataloged. These objects could be anything from previously untracked satellites, spent rocket stages, debris from satellite collisions, or even natural meteoroids temporarily captured by Earth's gravity.

Loading next visibility...
Identifier
67688, 1998-067YE
Orbit
LEO
Country
Flag of TBDTBD
Related business
Flag of MYMARA University of Technology (MY)
Manufacturer
UiTM
Mission
Operational spacecraft
Bus & Motor
CUBESAT 1U, Unknown motor
Mass
1 kg wet, 1 kg dry
Launch date (UTC)
1998-11-20 (27 years ago)
Launch vehicle
H3-24W
Launch site
Tyuratam Missile And Space Complex (TTMTR)
Object type
Unknown
Shape & HBR
Unknown
Radar Cross Section
RCS unknown

Expand to show TLE details & history
Last TLE update: 20 hours ago

TLE from 20 hours ago
0 OBJECT F
1 67688U 98067YE  26061.50874384  .00050750  00000-0  83946-3 0  9999
2 67688  51.6317 107.4591 0007640 126.6437 233.5256 15.51667522  3596
Epoch: 2026-03-02T12:12Z
TLE epoch observation values (Epoch: 2026-03-02T12:12:35.467Z)
Latitude
-0.00003°
Longitude
124.01015°
Altitude
415.684 km
Speed
7.661 km/s
True Right ascension
07h 09m 50s
True Declination
0° 00' 00"
Sunlit
Object was in full shadow at epoch
Visualization orbit readout
Latitude
Unknown
Longitude
Unknown
Altitude
Unknown
Speed
Unknown
Apparent Right ascension
Unknown
Apparent Declination
Unknown
Sunlit
N/A
Visualization observer readout
Local Sidereal Time
12:17:58
Azimuth
Unknown
Elevation
Unknown
Doppler factor
Unknown
Orbital elements
Apogee altitude
417.555 km
Perigee altitude
407.179 km
Semi-major axis
6,790.504 km
Eccentricity
0.00076
Inclination
51.6317°
RAAN
107.4591°
Arg. of periapsis
126.6437°
True anomaly
233.45524°
Mean anomaly
233.5256°
Eccentric anomaly
233.49042°
Mean motion
3.87874 °/min
Orbital period
92.81 mins
BSTAR
0.00083946
Loading maneuver chart data...
Computing Atmospheric mass density...
Loading historical data...
Loading historical data...
Loading historical data...
Loading historical data...
Loading historical data...
Loading historical data...
Loading historical data...

Documentation

Showing up to 5 results
|